Location: St. Louis
(38.6270°N, 90.1994°W)
Time: 14:04:51
(UTC-06:00)

Transit 2A - Pass Details

Date: 06 December 2021
Orbit: 591 x 967 km, 66.7° (Epoch: 17 January)

Event Time Altitude Azimuth Distance (km) Brightness Sun altitude
Rises 06:56:06 0° 341° (NNW) 3,660 9.1 -2.3°
Reaches altitude 10° 06:59:24 10° 357° (N) 2,711 8.5 -1.7°
Maximum altitude 07:04:07 21° 45° (NE) 1,994 8.4 -0.9°
Drops below altitude 10° 07:08:42 10° 93° (E) 2,629 10.0 -0.1°
Sets 07:11:49 0° 108° (ESE) 3,519 11.7 0.4°
